Regional Weather Roundup
Issued by NWS

Home | Current Version | Previous Version | Text Only | Print | Product List | Glossary Off
Versions: 1 2 3 4 5 6 7 8 9 10 11 12 13 14 15 16 17 18 19 20 21 22 23 24 25 26 27 28 29 30 31 32 33 34 35 36 37 38 39 40 41 42 43 44 45 46 47 48 49 50

000
ASUS43 KOAX 260110
RWRNE

WEATHER ROUNDUP FOR NEBRASKA
NATIONAL WEATHER SERVICE OMAHA NE
800 PM CDT SUN JUN 25 2017

NOTES: SATELLITE DATA IS BEING USED TO AUGMENT CLOUD COVER ABOVE
       12000 FEET.
       "FAIR" INDICATES FEW OR NO CLOUDS BELOW 12,000 FEET WITH NO
       SIGNIFICANT WEATHER AND/OR OBSTRUCTIONS TO VISIBILITY.

  * THESE STATIONS DO NOT REPORT WEATHER SUCH AS RAIN...SNOW OR FOG.

NEZ001>004-019>022-054>056-260200-
NEBRASKA PANHANDLE

CITY           SKY/WX    TMP DP  RH WIND       PRES   REMARKS
SCOTTSBLUFF    SUNNY     76  44  32 SE12      30.21F
ALLIANCE       MOSUNNY   71  44  37 S6        30.21F
CHADRON        SUNNY     77  40  26 NW5       30.16F
GORDON         FAIR      70  48  45 E5        30.19F
KIMBALL        SUNNY     69  52  53 SE9       30.29S
SIDNEY         SUNNY     68  51  54 S13       30.28S
$$

NEZ057>060-069>072-079>082-260200-
SOUTHWEST NEBRASKA

CITY           SKY/WX    TMP DP  RH WIND       PRES   REMARKS
NORTH PLATTE   SUNNY     73  46  38 S13G22    30.22F
IMPERIAL       CLOUDY    66  52  60 S9        30.28S
LEXINGTON      SUNNY     72  48  42 S12       30.24F
MCCOOK         CLOUDY    67  55  65 SE6       30.26S
OGALLALA       SUNNY     72  50  46 S14       30.24F
$$

NEZ005>010-023>029-035>040-094-260200-
NORTH CENTRAL NEBRASKA

CITY           SKY/WX    TMP DP  RH WIND       PRES   REMARKS
VALENTINE      CLOUDY    75  43  31 E6        30.17F
AINSWORTH      PTSUNNY   74  42  31 SE7       30.18F
BROKEN BOW     SUNNY     73  43  33 S13G25    30.21F
O`NEILL        SUNNY     72  41  32 S5        30.19F
ORD            SUNNY     75  36  24 S10       30.19F
THEDFORD       MOSUNNY   77  42  29 S12       30.20S
$$

NEZ041-046>049-061>064-073>077-083>087-260200-
SOUTH CENTRAL NEBRASKA

CITY           SKY/WX    TMP DP  RH WIND       PRES   REMARKS
GRAND ISLAND   MOSUNNY   74  42  31 CALM      30.23F
AURORA         SUNNY     74  45  35 CALM      30.23F
HASTINGS       SUNNY     71  44  37 SW7       30.26S
HEBRON         CLEAR     71  47  42 SW8       30.24S
HOLDREGE       SUNNY     68  45  42 S7        30.26S
KEARNEY *      SUNNY     72  45  37 S8        30.25F
YORK           SUNNY     73  41  31 CALM      30.23F
$$

NEZ011>018-030>034-042>045-260200-
NORTHEAST NEBRASKA

CITY           SKY/WX    TMP DP  RH WIND       PRES   REMARKS
NORFOLK        SUNNY     73  37  27 CALM      30.21F
ALBION         SUNNY     74  37  26 SE5       30.21F
BLAIR          CLEAR     73  42  32 N8        30.22S
FREMONT        CLEAR     73  39  28 CALM      30.22F
TEKAMAH        CLEAR     74  37  26 NW6       30.21S
WAYNE          SUNNY     73  40  30 CALM      30.21F
$$

NEZ050>053-065>068-078-088>093-260200-
SOUTHEAST NEBRASKA

CITY           SKY/WX    TMP DP  RH WIND       PRES   REMARKS
LINCOLN        CLEAR     74  45  35 N3        30.22F
OMAHA EPPLEY   PTCLDY    74  44  34 N5        30.21F
BEATRICE       CLEAR     73  51  47 SW7       30.23S
FALLS CITY     CLEAR     71  52  50 SW5       30.21F
NEBRASKA CITY  CLEAR     72  47  42 CALM      30.23S
PLATTSMOUTH    CLEAR     72  44  35 CALM      30.22S
$$

NEZ044-045-051>053-067-260200-
OMAHA AREA

CITY           SKY/WX    TMP DP  RH WIND       PRES   REMARKS
OMAHA EPPLEY   PTCLDY    74  44  34 N5        30.21F
BLAIR          CLEAR     73  42  32 N8        30.22S
FREMONT        CLEAR     73  39  28 CALM      30.22F
MILLARD        CLEAR     75  43  32 NW7       30.22S
OFFUTT AFB     CLEAR     74  43  32 N3        30.21S
PLATTSMOUTH    CLEAR     72  44  35 CALM      30.22S
WAHOO          FAIR      74  38  26 N3        30.22S
$$




USA.gov is the U.S. government's official web portal to all federal, state and local government web resources and services.